Regional Weather Roundup
Issued by NWS

Home | Current Version | Previous Version | Text Only | Print | Product List | Glossary Off
Versions: 1 2 3 4 5 6 7 8 9 10 11 12 13 14 15 16 17 18 19 20 21 22 23 24 25 26 27 28 29 30 31 32 33 34 35 36 37 38 39 40 41 42 43 44 45 46 47 48 49 50

000
ASUS43 KMPX 290301
RWRMN
WEATHER ROUNDUP FOR MINNESOTA
NATIONAL WEATHER SERVICE TWIN CITIES/CHANHASSEN MN
1000 PM CDT WED SEP 28 2016


NOTE: "FAIR" INDICATES FEW OR NO CLOUDS BELOW 12,000 FEET WITH NO
SIGNIFICANT WEATHER AND/OR OBSTRUCTIONS TO VISIBILITY. N/A MEANS
CURRENT SKY AND/OR WEATHER CONDITIONS ARE NOT AVAILABLE.

MNZ060>063-068>070-290400-
   Twin Cities Metro

CITY           SKY/WX    TMP DP  RH WIND       PRES   REMARKS
TWIN CITIES    CLEAR     55  48  77 N9        30.35R
ST PAUL        CLEAR     55  49  80 N3        30.35R
CRYSTAL        CLEAR     55  47  74 N6        30.34R
BLAINE         CLEAR     54  50  87 N6        30.35R
LAKEVILLE      CLEAR     54  48  82 N6        30.34R
EDEN PRAIRIE   CLEAR     55  49  80 N7        30.33R
LAKEVILLE      CLEAR     54  48  82 N6        30.34R
SOUTH ST PAUL  CLEAR     55  48  77 N5        30.34R
LAKE ELMO      FAIR      54  50  87 N7        30.35R
$$
MNZ001>005-007-008-013>017-022>024-027-028-290400-
   Northwest Minnesota

CITY           SKY/WX    TMP DP  RH WIND       PRES   REMARKS
BEMIDJI        CLOUDY    52  46  81 CALM      30.41R
HALLOCK        CLEAR     50  46  87 CALM      30.40R
ROSEAU         CLEAR     48  43  81 SE3       30.41S
THIEF RVR FALL CLOUDY    54  49  83 E3        30.42R
CROOKSTON      MOCLDY    54  48  82 SE5       30.41R
FOSSTON        CLOUDY    48  46  93 CALM      30.42R
DETROIT LAKES  CLOUDY    52  46  82 E3        30.41R
MOORHEAD       CLEAR     50  46  87 NE3       30.40R
PARK RAPIDS    CLOUDY    56  43  61 NE3       30.40R
MAHNOMEN       FAIR      46  44  92 E5        30.41R
$$
MNZ006-009>011-018-025>026-290400-
   North Central Minnesota

CITY           SKY/WX    TMP DP  RH WIND       PRES   REMARKS
BAUDETTE       CLOUDY    53  49  86 SE3       30.41S
FLAG ISLAND    CLOUDY    55  50  82 CALM      30.40R
INTL FALLS     CLOUDY    54  48  80 NE5       30.41R
WASKISH        CLOUDY    52  48  87 E3        30.42R
BIG FORK       CLOUDY    54  50  87 CALM      30.41R
GRAND RAPIDS   CLOUDY    53  49  86 N3        30.41R
COOK           CLOUDY    52  50  93 CALM      30.41R
WALKER         CLOUDY    52  47  81 CALM      30.40R
$$
MNZ012-019>021-037-290400-
   Northeast Minnesota

CITY           SKY/WX    TMP DP  RH WIND       PRES   REMARKS
DULUTH         CLOUDY    53  50  89 E3        30.38R
ELY            CLOUDY    54  50  87 CALM      30.40R
HIBBING        CLOUDY    53  49  86 CALM      30.39R
EVELETH        CLOUDY    53  50  89 CALM      30.41R
DULUTH HARBOR  CLOUDY    55  54  94 N6        30.39R
TWO HARBORS    MOCLDY    55  52  88 CALM      30.37R
SILVER BAY     CLOUDY    54  52  94 CALM      30.38R
GRAND MARAIS     N/A     54  52  93 CALM      30.38R
G MARAIS ARPRT CLOUDY    52  45  76 N5        30.40R
$$
MNZ029>031-032-039>041-046>048-054>057-064-290400-
   West Central Minnesota

CITY           SKY/WX    TMP DP  RH WIND       PRES   REMARKS
FERGUS FALLS   CLEAR     50  45  81 E3        30.42R
MORRIS         CLOUDY    55  48  76 CALM      30.38R
ALEXANDRIA     CLOUDY    55  47  74 E8        30.41R
ELBOW LAKE     FAIR      52  47  84 NE5       30.40R
WADENA         CLOUDY    54  45  71 CALM      30.40R
GLENWOOD       MOCLDY    54  46  76 NE6       30.39R
BENSON         PTCLDY    52  45  76 E3        30.38R
ORTONVILLE     CLEAR     50  45  81 CALM      30.38R
MADISON        MOCLDY    52  46  82 NE3       30.37R
WILLMAR        MOCLDY    52  48  87 NE3       30.39R
$$
MNZ033>034-036-042>043-049>051-058-059-290400-
   Central Minnesota

CITY           SKY/WX    TMP DP  RH WIND       PRES   REMARKS
ST CLOUD       CLOUDY    53  49  86 CALM      30.37R
SAUK CENTRE    FAIR      53  46  76 N3        30.39R
PAYNESVILLE    PTCLDY    50  49  98 CALM      30.38R
AITKIN         CLOUDY    55  48  76 E5        30.38R
PINE RIVER     CLOUDY    54  48  82 CALM      30.42R
BRAINERD       CLOUDY    54  48  80 N3        30.39R
STAPLES        CLOUDY    54  45  71 CALM      30.40R
LONG PRAIRIE   CLOUDY    54  45  71 CALM      30.40R
LITTLE FALLS   CLOUDY    54  45  71 CALM      30.38S
LITCHFIELD     CLOUDY    55  50  82 N5        30.38R
BUFFALO        CLEAR     54  47  78 N3        30.37R
MAPLE LAKE     MOCLDY    55  50  84 N5        30.37S
HUTCHINSON     PTCLDY    53  50  89 N6        30.37R
$$
MNZ037-044-045-052-053-290400-
   East Central Minnesota

CITY           SKY/WX    TMP DP  RH WIND       PRES   REMARKS
PRINCETON        N/A     55  48  76 CALM      30.37S
MORA           CLOUDY    54  46  76 CALM      30.39S
CAMBRIDGE      CLEAR     55  46  71 CALM      30.35S
MOOSE LAKE     CLOUDY    52  48  87 CALM      30.37R
HINCKLEY       FAIR      50  48  93 CALM      30.38S
CLOQUET        CLOUDY    54  48  82 CALM      30.39R
MCGREGOR       CLOUDY    54  50  87 CALM      30.39R
$$
MNZ071>073-080-081-089-090-097-098-290400-
   Southwest Minnesota

CITY           SKY/WX    TMP DP  RH WIND       PRES   REMARKS
MONTEVIDEO     CLEAR     48  45  87 E6        30.39R
GRANITE FALLS  CLEAR     51  46  83 NE5       30.38R
CANBY          CLEAR     47  45  92 NW3       30.38R
MARSHALL       PTCLDY    52  46  80 E7        30.36R
REDWOOD FALLS  MOCLDY    57  47  69 VRB3      30.36R
OLIVIA         CLOUDY    55  46  71 N5        30.36R
PIPESTONE      CLEAR     48  43  81 NE3       30.35R
WINDOM         CLEAR     52  46  82 NE5       30.35R
WORTHINGTON    CLEAR     50  46  86 NE6       30.36R
JACKSON        CLEAR     46  43  87 NE5       30.35R
TRACY          CLEAR     53  48  83 E3        30.36R
$$
MNZ065>067-074>077-082>085-091>093-290400-
   South Central Minnesota

CITY           SKY/WX    TMP DP  RH WIND       PRES   REMARKS
MANKATO        CLEAR     53  48  83 NE12      30.34R
ST JAMES       CLEAR     52  46  82 CALM      30.35S
FAIRMONT       MOCLDY    49  47  93 N6        30.34R
GLENCOE        CLEAR     55  51  86 N3        30.35R
FARIBAULT      PTCLDY    54  48  82 N6        30.34R
OWATONNA       MOCLDY    55  48  76 N12       30.33R
WASECA         PTCLDY    52  46  82 N7        30.34R
ALBERT LEA     CLEAR     54  48  82 N6        30.32R
$$
MNZ078>079-086>088-094>096-290400-
   Southeast Minnesota

CITY           SKY/WX    TMP DP  RH WIND       PRES   REMARKS
ROCHESTER      CLOUDY    57  50  77 N13       30.32R
RED WING       MOCLDY    57  50  77 NE10G16   30.31R
DODGE CENTER   CLOUDY    55  48  76 N8        30.32R
WINONA         CLOUDY    59  52  77 N5        30.30R
AUSTIN         MOCLDY    55  48  76 N6        30.31R
PRESTON        CLOUDY    56  50  80 N13G21    30.30R
$$
ABBREVIATIONS USED IN REMARKS
   TC - TEMPERATURES IN CELSIUS
  WCI - WIND CHILL INDEX
   HX - HEAT INDEX
  VSB - VISIBILITY
$$



USA.gov is the U.S. government's official web portal to all federal, state and local government web resources and services.